Location: Downe
(51.3167°N, 0.0500°E)
Time: 12:37:56
(UTC+00:00)

SL-27 R/B - Pass Details

Date: 17 November 2019
Orbit: 420 x 473 km, 74.7° (Epoch: 14 December)

Event Time Altitude Azimuth Distance (km) Brightness Sun altitude
Exits shadow 04:46:37 24° 30° (NNE) 915 4.2 -23.6°
Drops below altitude 10° 04:48:07 10° 26° (NNE) 1,521 5.4 -23.4°
Sets 04:50:11 0° 25° (NNE) 2,396 6.4 -23.1°
